Time,TemperatureF,DewpointF,PressureIn,WindDirection,WindDirectionDegrees,WindSpeedMPH,WindSpeedGustMPH,Humidity,HourlyPrecipIn,Conditions,Clouds,dailyrainin,SoftwareType,DateUTC
2013-02-24 00:02:00,36.1,20.7,29.87,SE,136,5.0,8.0,53,0.00,,,0.00,meteohub,2013-02-24 06:02:00,
2013-02-24 00:07:00,36.3,20.8,29.87,SSE,149,5.0,8.0,53,0.00,,,0.00,meteohub,2013-02-24 06:07:00,
2013-02-24 00:12:00,36.3,20.3,29.87,SE,138,6.0,8.0,52,0.00,,,0.00,meteohub,2013-02-24 06:12:00,
2013-02-24 00:17:00,36.5,20.1,29.87,SE,130,6.0,11.0,51,0.00,,,0.00,meteohub,2013-02-24 06:17:00,
2013-02-24 00:22:00,36.5,20.1,29.87,ESE,120,6.0,11.0,51,0.00,,,0.00,meteohub,2013-02-24 06:22:00,
2013-02-24 00:28:00,36.5,19.6,29.87,SE,138,11.0,11.0,50,0.00,,,0.00,meteohub,2013-02-24 06:28:00,
2013-02-24 00:33:00,36.7,19.8,29.87,ESE,120,3.0,11.0,50,0.00,,,0.00,meteohub,2013-02-24 06:33:00,
2013-02-24 00:38:00,36.5,19.6,29.87,SE,138,5.0,13.0,50,0.00,,,0.00,meteohub,2013-02-24 06:38:00,
2013-02-24 00:43:00,36.3,19.4,29.87,SE,129,8.0,13.0,50,0.00,,,0.00,meteohub,2013-02-24 06:43:00,
2013-02-24 00:48:00,36.3,19.4,29.87,SE,141,6.0,13.0,50,0.00,,,0.00,meteohub,2013-02-24 06:48:00,
2013-02-24 00:53:00,36.1,19.2,29.87,SE,128,8.0,13.0,50,0.00,,,0.00,meteohub,2013-02-24 06:53:00,
2013-02-24 00:58:00,35.6,19.2,29.87,SE,133,6.0,10.0,51,0.00,,,0.00,meteohub,2013-02-24 06:58:00,
2013-02-24 01:03:00,35.4,19.6,29.87,SE,143,4.0,10.0,52,0.00,,,0.00,meteohub,2013-02-24 07:03:00,
2013-02-24 01:09:00,35.2,19.4,29.87,SE,136,6.0,8.0,52,0.00,,,0.00,meteohub,2013-02-24 07:09:00,
2013-02-24 01:14:00,34.9,19.0,29.87,ESE,110,4.0,8.0,52,0.00,,,0.00,meteohub,2013-02-24 07:14:00,
2013-02-24 01:19:00,34.5,19.2,29.87,SE,136,5.0,8.0,53,0.00,,,0.00,meteohub,2013-02-24 07:19:00,
2013-02-24 01:24:00,34.5,19.6,29.87,SSE,147,6.0,8.0,54,0.00,,,0.00,meteohub,2013-02-24 07:24:00,
2013-02-24 01:29:00,34.7,19.8,29.87,SE,125,5.0,11.0,54,0.00,,,0.00,meteohub,2013-02-24 07:29:00,
2013-02-24 01:34:00,34.5,19.6,29.87,SE,141,4.0,11.0,54,0.00,,,0.00,meteohub,2013-02-24 07:34:00,
2013-02-24 01:39:00,34.3,19.8,29.87,SE,124,6.0,11.0,55,0.00,,,0.00,meteohub,2013-02-24 07:39:00,
2013-02-24 01:44:00,34.3,19.8,29.87,SE,140,8.0,8.0,55,0.00,,,0.00,meteohub,2013-02-24 07:44:00,
2013-02-24 01:49:00,34.3,20.3,29.87,ESE,123,3.0,8.0,56,0.00,,,0.00,meteohub,2013-02-24 07:49:00,
2013-02-24 01:54:00,34.3,19.8,29.87,ESE,105,3.0,8.0,55,0.00,,,0.00,meteohub,2013-02-24 07:54:00,
2013-02-24 01:59:00,34.0,19.6,29.87,East,101,3.0,8.0,55,0.00,,,0.00,meteohub,2013-02-24 07:59:00,
2013-02-24 02:04:00,33.8,19.8,29.87,SE,131,4.0,8.0,56,0.00,,,0.00,meteohub,2013-02-24 08:04:00,
2013-02-24 02:09:00,34.0,19.9,29.87,SE,139,5.0,7.0,56,0.00,,,0.00,meteohub,2013-02-24 08:09:00,
2013-02-24 02:14:00,34.2,19.8,29.87,SSE,149,6.0,8.0,55,0.00,,,0.00,meteohub,2013-02-24 08:14:00,
2013-02-24 02:19:00,34.2,19.8,29.87,SE,127,8.0,8.0,55,0.00,,,0.00,meteohub,2013-02-24 08:19:00,
2013-02-24 02:25:00,34.0,19.6,29.87,SE,146,8.0,10.0,55,0.00,,,0.00,meteohub,2013-02-24 08:25:00,
2013-02-24 02:30:00,33.8,19.4,29.87,SE,134,6.0,10.0,55,0.00,,,0.00,meteohub,2013-02-24 08:30:00,
2013-02-24 02:35:00,33.8,19.8,29.87,SE,136,5.0,10.0,56,0.00,,,0.00,meteohub,2013-02-24 08:35:00,
2013-02-24 02:40:00,33.4,19.4,29.87,SE,128,4.0,10.0,56,0.00,,,0.00,meteohub,2013-02-24 08:40:00,
2013-02-24 02:45:00,33.3,19.8,29.87,SE,136,4.0,8.0,57,0.00,,,0.00,meteohub,2013-02-24 08:45:00,
2013-02-24 02:50:00,33.1,19.9,29.87,SE,133,6.0,8.0,58,0.00,,,0.00,meteohub,2013-02-24 08:50:00,
2013-02-24 02:55:00,33.3,20.5,29.84,SE,130,6.0,7.0,59,0.00,,,0.00,meteohub,2013-02-24 08:55:00,
2013-02-24 03:00:00,33.6,21.2,29.84,SE,133,8.0,8.0,60,0.00,,,0.00,meteohub,2013-02-24 09:00:00,
2013-02-24 03:05:00,33.8,21.0,29.84,SE,141,9.0,11.0,59,0.00,,,0.00,meteohub,2013-02-24 09:05:00,
2013-02-24 03:10:00,34.2,20.8,29.84,SSE,150,4.0,11.0,58,0.00,,,0.00,meteohub,2013-02-24 09:10:00,
2013-02-24 03:15:00,34.2,20.8,29.84,SE,146,5.0,11.0,58,0.00,,,0.00,meteohub,2013-02-24 09:15:00,
2013-02-24 03:20:00,34.2,20.5,29.84,SE,134,6.0,11.0,57,0.00,,,0.00,meteohub,2013-02-24 09:20:00,
2013-02-24 03:25:00,34.2,20.8,29.84,SE,133,4.0,8.0,58,0.00,,,0.00,meteohub,2013-02-24 09:25:00,
2013-02-24 03:30:00,34.0,20.8,29.84,SE,144,6.0,8.0,58,0.00,,,0.00,meteohub,2013-02-24 09:30:00,
2013-02-24 03:36:00,33.8,20.7,29.84,SE,134,4.0,7.0,58,0.00,,,0.00,meteohub,2013-02-24 09:36:00,
2013-02-24 03:41:00,33.8,20.7,29.84,SE,141,5.0,7.0,58,0.00,,,0.00,meteohub,2013-02-24 09:41:00,
2013-02-24 03:46:00,33.8,20.7,29.84,SE,138,5.0,8.0,58,0.00,,,0.00,meteohub,2013-02-24 09:46:00,
2013-02-24 03:51:00,33.8,20.7,29.84,SE,127,6.0,8.0,58,0.00,,,0.00,meteohub,2013-02-24 09:51:00,
2013-02-24 03:56:00,33.6,20.5,29.84,ESE,107,4.0,8.0,58,0.00,,,0.00,meteohub,2013-02-24 09:56:00,
2013-02-24 04:01:00,33.6,20.5,29.84,ESE,113,4.0,8.0,58,0.00,,,0.00,meteohub,2013-02-24 10:01:00,
2013-02-24 04:06:00,33.3,20.1,29.84,ESE,106,4.0,8.0,58,0.00,,,0.00,meteohub,2013-02-24 10:06:00,
2013-02-24 04:11:00,33.3,20.1,29.84,ESE,118,4.0,8.0,58,0.00,,,0.00,meteohub,2013-02-24 10:11:00,
2013-02-24 04:16:00,33.1,19.9,29.84,ESE,102,5.0,8.0,58,0.00,,,0.00,meteohub,2013-02-24 10:16:00,
2013-02-24 04:21:00,32.9,19.8,29.84,ESE,104,3.0,8.0,58,0.00,,,0.00,meteohub,2013-02-24 10:21:00,
2013-02-24 04:26:00,33.1,20.3,29.84,SE,142,6.0,6.0,59,0.00,,,0.00,meteohub,2013-02-24 10:26:00,
2013-02-24 04:31:00,33.4,20.7,29.84,SSE,156,7.0,7.0,59,0.00,,,0.00,meteohub,2013-02-24 10:31:00,
2013-02-24 04:37:00,33.6,20.5,29.84,SSE,147,7.0,9.0,58,0.00,,,0.00,meteohub,2013-02-24 10:37:00,
2013-02-24 04:42:00,33.6,20.5,29.84,SE,145,6.0,9.0,58,0.00,,,0.00,meteohub,2013-02-24 10:42:00,
2013-02-24 04:47:00,33.6,20.5,29.84,SSE,147,8.0,8.0,58,0.00,,,0.00,meteohub,2013-02-24 10:47:00,
2013-02-24 04:52:00,33.4,20.3,29.84,ESE,123,5.0,8.0,58,0.00,,,0.00,meteohub,2013-02-24 10:52:00,
2013-02-24 04:57:00,33.6,20.8,29.84,SSE,153,5.0,11.0,59,0.00,,,0.00,meteohub,2013-02-24 10:57:00,
2013-02-24 05:02:00,33.8,21.0,29.84,ESE,119,5.0,11.0,59,0.00,,,0.00,meteohub,2013-02-24 11:02:00,
2013-02-24 05:07:00,34.0,21.2,29.84,SSE,147,9.0,11.0,59,0.00,,,0.00,meteohub,2013-02-24 11:07:00,
2013-02-24 05:12:00,34.2,20.8,29.84,SE,146,9.0,11.0,58,0.00,,,0.00,meteohub,2013-02-24 11:12:00,
2013-02-24 05:17:00,34.2,20.5,29.84,South,170,6.0,11.0,57,0.00,,,0.00,meteohub,2013-02-24 11:17:00,
2013-02-24 05:22:00,34.0,20.3,29.84,SE,136,5.0,11.0,57,0.00,,,0.00,meteohub,2013-02-24 11:22:00,
2013-02-24 05:27:00,33.8,20.1,29.84,SE,145,8.0,11.0,57,0.00,,,0.00,meteohub,2013-02-24 11:27:00,
2013-02-24 05:32:00,33.6,20.5,29.84,South,170,6.0,11.0,58,0.00,,,0.00,meteohub,2013-02-24 11:32:00,
2013-02-24 05:37:00,33.4,20.3,29.84,SE,135,8.0,11.0,58,0.00,,,0.00,meteohub,2013-02-24 11:37:00,
2013-02-24 05:42:00,33.3,20.1,29.87,SE,146,6.0,11.0,58,0.00,,,0.00,meteohub,2013-02-24 11:42:00,
2013-02-24 05:47:00,32.9,19.8,29.87,SSE,147,8.0,11.0,58,0.00,,,0.00,meteohub,2013-02-24 11:47:00,
2013-02-24 05:52:00,32.7,19.9,29.87,South,173,8.0,11.0,59,0.00,,,0.00,meteohub,2013-02-24 11:52:00,
2013-02-24 05:57:00,32.5,19.8,29.87,ESE,117,6.0,11.0,59,0.00,,,0.00,meteohub,2013-02-24 11:57:00,
2013-02-24 06:02:00,32.5,20.1,29.87,SSE,150,5.0,12.0,60,0.00,,,0.00,meteohub,2013-02-24 12:02:00,
2013-02-24 06:07:00,32.5,20.1,29.87,SSE,150,8.0,12.0,60,0.00,,,0.00,meteohub,2013-02-24 12:07:00,
2013-02-24 06:12:00,32.4,20.5,29.84,SE,135,5.0,12.0,61,0.00,,,0.00,meteohub,2013-02-24 12:12:00,
2013-02-24 06:17:00,32.4,20.5,29.84,SE,143,6.0,12.0,61,0.00,,,0.00,meteohub,2013-02-24 12:17:00,
2013-02-24 06:22:00,32.2,20.3,29.84,SSE,157,5.0,13.0,61,0.00,,,0.00,meteohub,2013-02-24 12:22:00,
2013-02-24 06:27:00,32.0,20.1,29.84,SE,131,5.0,13.0,61,0.00,,,0.00,meteohub,2013-02-24 12:27:00,
2013-02-24 06:32:00,31.8,20.3,29.84,SSE,168,5.0,13.0,62,0.00,,,0.00,meteohub,2013-02-24 12:32:00,
2013-02-24 06:37:00,31.6,20.1,29.84,SSE,149,8.0,12.0,62,0.00,,,0.00,meteohub,2013-02-24 12:37:00,
2013-02-24 06:42:00,31.5,19.9,29.84,SE,133,5.0,12.0,62,0.00,,,0.00,meteohub,2013-02-24 12:42:00,
2013-02-24 06:47:00,31.5,20.3,29.84,SSE,147,9.0,12.0,63,0.00,,,0.00,meteohub,2013-02-24 12:47:00,
2013-02-24 06:52:00,31.6,20.8,29.84,SSE,148,7.0,12.0,64,0.00,,,0.00,meteohub,2013-02-24 12:52:00,
2013-02-24 06:57:00,31.8,21.0,29.84,SSE,153,8.0,10.0,64,0.00,,,0.00,meteohub,2013-02-24 12:57:00,
2013-02-24 07:02:00,32.0,21.2,29.84,SE,141,8.0,10.0,64,0.00,,,0.00,meteohub,2013-02-24 13:02:00,
2013-02-24 07:07:00,32.4,21.6,29.84,SE,136,8.0,10.0,64,0.00,,,0.00,meteohub,2013-02-24 13:07:00,
2013-02-24 07:12:00,32.7,21.6,29.84,SE,126,8.0,12.0,63,0.00,,,0.00,meteohub,2013-02-24 13:12:00,
2013-02-24 07:17:00,32.9,21.4,29.84,ESE,122,8.0,12.0,62,0.00,,,0.00,meteohub,2013-02-24 13:17:00,
2013-02-24 07:22:00,33.1,21.6,29.84,SSE,149,6.0,12.0,62,0.00,,,0.00,meteohub,2013-02-24 13:22:00,
2013-02-24 07:27:00,33.3,21.2,29.84,SE,127,8.0,12.0,61,0.00,,,0.00,meteohub,2013-02-24 13:27:00,
2013-02-24 07:32:00,33.6,21.6,29.84,South,177,8.0,13.0,61,0.00,,,0.00,meteohub,2013-02-24 13:32:00,
2013-02-24 07:37:00,34.0,21.6,29.84,SE,128,9.0,13.0,60,0.00,,,0.00,meteohub,2013-02-24 13:37:00,
2013-02-24 07:42:00,34.3,21.6,29.84,SE,139,7.0,13.0,59,0.00,,,0.00,meteohub,2013-02-24 13:42:00,
2013-02-24 07:47:00,34.9,21.9,29.84,SSE,157,8.0,13.0,59,0.00,,,0.00,meteohub,2013-02-24 13:47:00,
2013-02-24 07:52:00,35.4,22.1,29.84,SE,142,8.0,12.0,58,0.00,,,0.00,meteohub,2013-02-24 13:52:00,
2013-02-24 07:57:00,36.0,22.3,29.87,SE,137,13.0,13.0,57,0.00,,,0.00,meteohub,2013-02-24 13:57:00,
2013-02-24 08:02:00,36.5,22.3,29.87,SE,140,13.0,13.0,56,0.00,,,0.00,meteohub,2013-02-24 14:02:00,
2013-02-24 08:07:00,37.0,22.5,29.87,SE,141,8.0,13.0,55,0.00,,,0.00,meteohub,2013-02-24 14:07:00,
2013-02-24 08:12:00,37.8,22.6,29.87,SE,144,6.0,13.0,54,0.00,,,0.00,meteohub,2013-02-24 14:12:00,
2013-02-24 08:17:00,38.5,22.8,29.87,SSE,166,12.0,13.0,53,0.00,,,0.00,meteohub,2013-02-24 14:17:00,
2013-02-24 08:22:00,39.2,23.0,29.87,SSE,160,11.0,13.0,52,0.00,,,0.00,meteohub,2013-02-24 14:22:00,
2013-02-24 08:27:00,39.7,23.2,29.87,SSE,151,6.0,13.0,51,0.00,,,0.00,meteohub,2013-02-24 14:27:00,
2013-02-24 08:32:00,40.1,23.9,29.87,SE,143,13.0,17.0,52,0.00,,,0.00,meteohub,2013-02-24 14:32:00,
2013-02-24 08:37:00,40.5,23.7,29.87,SE,138,11.0,17.0,51,0.00,,,0.00,meteohub,2013-02-24 14:37:00,
2013-02-24 08:42:00,40.8,24.1,29.87,South,180,8.0,17.0,51,0.00,,,0.00,meteohub,2013-02-24 14:42:00,
2013-02-24 08:47:00,41.0,23.7,29.87,SSE,149,8.0,17.0,50,0.00,,,0.00,meteohub,2013-02-24 14:47:00,
2013-02-24 08:53:00,41.2,23.9,29.87,SE,140,11.0,17.0,50,0.00,,,0.00,meteohub,2013-02-24 14:53:00,
2013-02-24 08:58:00,41.9,25.2,29.87,SE,139,9.0,15.0,51,0.00,,,0.00,meteohub,2013-02-24 14:58:00,
2013-02-24 09:03:00,42.4,25.5,29.87,SE,141,7.0,15.0,51,0.00,,,0.00,meteohub,2013-02-24 15:03:00,
2013-02-24 09:08:00,43.0,25.7,29.87,SSE,147,8.0,15.0,50,0.00,,,0.00,meteohub,2013-02-24 15:08:00,
2013-02-24 09:13:00,43.7,26.2,29.87,SE,145,6.0,17.0,50,0.00,,,0.00,meteohub,2013-02-24 15:13:00,
2013-02-24 09:19:00,44.4,26.4,29.87,SSE,166,8.0,17.0,49,0.00,,,0.00,meteohub,2013-02-24 15:19:00,
2013-02-24 09:24:00,45.3,27.3,29.87,SSW,203,17.0,17.0,49,0.00,,,0.00,meteohub,2013-02-24 15:24:00,
2013-02-24 09:29:00,46.2,28.0,29.87,SE,134,12.0,17.0,49,0.00,,,0.00,meteohub,2013-02-24 15:29:00,
2013-02-24 09:34:00,47.1,27.9,29.87,SSE,147,10.0,17.0,47,0.00,,,0.00,meteohub,2013-02-24 15:34:00,
2013-02-24 09:39:00,47.5,28.2,29.87,SE,128,13.0,17.0,47,0.00,,,0.00,meteohub,2013-02-24 15:39:00,
2013-02-24 09:44:00,48.0,28.8,29.87,South,185,6.0,17.0,47,0.00,,,0.00,meteohub,2013-02-24 15:44:00,
2013-02-24 09:49:00,48.7,29.5,29.87,SE,141,11.0,17.0,47,0.00,,,0.00,meteohub,2013-02-24 15:49:00,
2013-02-24 09:55:00,49.5,29.5,29.87,South,191,11.0,17.0,46,0.00,,,0.00,meteohub,2013-02-24 15:55:00,
2013-02-24 10:00:00,49.8,29.8,29.87,SSE,148,11.0,17.0,46,0.00,,,0.00,meteohub,2013-02-24 16:00:00,
2013-02-24 10:05:00,50.4,29.8,29.87,SSE,166,17.0,17.0,45,0.00,,,0.00,meteohub,2013-02-24 16:05:00,
2013-02-24 10:10:00,50.7,30.2,29.84,South,171,8.0,18.0,45,0.00,,,0.00,meteohub,2013-02-24 16:10:00,
2013-02-24 10:15:00,51.6,30.4,29.84,SE,146,12.0,18.0,44,0.00,,,0.00,meteohub,2013-02-24 16:15:00,
2013-02-24 10:20:00,52.2,30.4,29.84,South,179,10.0,18.0,43,0.00,,,0.00,meteohub,2013-02-24 16:20:00,
2013-02-24 10:25:00,52.9,29.8,29.84,South,171,12.0,20.0,41,0.00,,,0.00,meteohub,2013-02-24 16:25:00,
2013-02-24 10:30:00,53.4,30.4,29.84,SSE,157,13.0,20.0,41,0.00,,,0.00,meteohub,2013-02-24 16:30:00,
2013-02-24 10:35:00,54.0,29.5,29.84,SE,129,15.0,20.0,39,0.00,,,0.00,meteohub,2013-02-24 16:35:00,
2013-02-24 10:40:00,54.3,29.3,29.84,SSE,159,12.0,20.0,38,0.00,,,0.00,meteohub,2013-02-24 16:40:00,
2013-02-24 10:46:00,54.5,29.5,29.84,SSE,159,10.0,22.0,38,0.00,,,0.00,meteohub,2013-02-24 16:46:00,
2013-02-24 10:51:00,55.4,29.5,29.84,SE,125,13.0,22.0,37,0.00,,,0.00,meteohub,2013-02-24 16:51:00,
2013-02-24 10:56:00,55.6,29.1,29.84,SE,126,17.0,22.0,36,0.00,,,0.00,meteohub,2013-02-24 16:56:00,
2013-02-24 11:01:00,55.4,28.9,29.84,SE,133,8.0,22.0,36,0.00,,,0.00,meteohub,2013-02-24 17:01:00,
2013-02-24 11:06:00,56.1,29.5,29.84,SE,135,15.0,21.0,36,0.00,,,0.00,meteohub,2013-02-24 17:06:00,
2013-02-24 11:11:00,56.1,28.8,29.84,South,191,15.0,21.0,35,0.00,,,0.00,meteohub,2013-02-24 17:11:00,
2013-02-24 11:16:00,56.3,28.9,29.84,SSE,148,11.0,21.0,35,0.00,,,0.00,meteohub,2013-02-24 17:16:00,
2013-02-24 11:21:00,56.3,29.7,29.84,SSE,166,8.0,21.0,36,0.00,,,0.00,meteohub,2013-02-24 17:21:00,
2013-02-24 11:26:00,57.2,29.8,29.84,SE,143,12.0,21.0,35,0.00,,,0.00,meteohub,2013-02-24 17:26:00,
2013-02-24 11:31:00,57.7,29.5,29.84,ESE,120,8.0,21.0,34,0.00,,,0.00,meteohub,2013-02-24 17:31:00,
2013-02-24 11:36:00,57.9,28.2,29.84,SSE,152,12.0,22.0,32,0.00,,,0.00,meteohub,2013-02-24 17:36:00,
2013-02-24 11:41:00,58.3,28.6,29.84,ESE,116,17.0,22.0,32,0.00,,,0.00,meteohub,2013-02-24 17:41:00,
2013-02-24 11:47:00,58.5,27.1,29.84,SE,143,11.0,22.0,30,0.00,,,0.00,meteohub,2013-02-24 17:47:00,
2013-02-24 11:52:00,58.5,27.9,29.84,ESE,113,11.0,22.0,31,0.00,,,0.00,meteohub,2013-02-24 17:52:00,
2013-02-24 11:57:00,58.8,28.2,29.81,SE,139,15.0,23.0,31,0.00,,,0.00,meteohub,2013-02-24 17:57:00,
2013-02-24 12:02:00,59.4,27.9,29.81,SSE,168,13.0,23.0,30,0.00,,,0.00,meteohub,2013-02-24 18:02:00,
2013-02-24 12:07:00,59.7,27.3,29.81,SSE,150,13.0,21.0,29,0.00,,,0.00,meteohub,2013-02-24 18:07:00,
2013-02-24 12:12:00,59.9,27.5,29.81,SE,138,11.0,21.0,29,0.00,,,0.00,meteohub,2013-02-24 18:12:00,
2013-02-24 12:17:00,60.1,27.7,29.81,SSE,149,11.0,23.0,29,0.00,,,0.00,meteohub,2013-02-24 18:17:00,
2013-02-24 12:22:00,60.4,28.0,29.81,SE,144,8.0,23.0,29,0.00,,,0.00,meteohub,2013-02-24 18:22:00,
2013-02-24 12:27:00,61.2,27.9,29.81,SSW,212,15.0,23.0,28,0.00,,,0.00,meteohub,2013-02-24 18:27:00,
2013-02-24 12:32:00,61.0,26.8,29.81,SSE,147,10.0,20.0,27,0.00,,,0.00,meteohub,2013-02-24 18:32:00,
2013-02-24 12:37:00,61.5,27.1,29.81,SSW,192,11.0,20.0,27,0.00,,,0.00,meteohub,2013-02-24 18:37:00,
2013-02-24 12:42:00,61.3,27.9,29.78,South,173,8.0,21.0,28,0.00,,,0.00,meteohub,2013-02-24 18:42:00,
2013-02-24 12:47:00,61.7,27.3,29.78,ESE,122,13.0,21.0,27,0.00,,,0.00,meteohub,2013-02-24 18:47:00,
2013-02-24 12:52:00,61.9,27.5,29.78,SE,134,14.0,20.0,27,0.00,,,0.00,meteohub,2013-02-24 18:52:00,
2013-02-24 12:57:00,61.5,27.1,29.78,South,177,13.0,24.0,27,0.00,,,0.00,meteohub,2013-02-24 18:57:00,
2013-02-24 13:02:00,61.7,28.2,29.78,ESE,119,13.0,24.0,28,0.00,,,0.00,meteohub,2013-02-24 19:02:00,
2013-02-24 13:07:00,62.4,28.0,29.78,East,88,13.0,24.0,27,0.00,,,0.00,meteohub,2013-02-24 19:07:00,
2013-02-24 13:12:00,62.1,28.6,29.78,SSE,153,15.0,24.0,28,0.00,,,0.00,meteohub,2013-02-24 19:12:00,
2013-02-24 13:18:00,62.2,28.8,29.78,SSE,157,17.0,22.0,28,0.00,,,0.00,meteohub,2013-02-24 19:18:00,
2013-02-24 13:23:00,62.4,28.9,29.78,South,189,13.0,22.0,28,0.00,,,0.00,meteohub,2013-02-24 19:23:00,
2013-02-24 13:28:00,62.4,28.9,29.75,ESE,118,15.0,22.0,28,0.00,,,0.00,meteohub,2013-02-24 19:28:00,
2013-02-24 13:33:00,62.4,29.7,29.75,SSE,154,13.0,22.0,29,0.00,,,0.00,meteohub,2013-02-24 19:33:00,
2013-02-24 13:38:00,63.0,29.3,29.75,SE,124,12.0,22.0,28,0.00,,,0.00,meteohub,2013-02-24 19:38:00,
2013-02-24 13:43:00,63.1,29.5,29.75,SE,135,11.0,22.0,28,0.00,,,0.00,meteohub,2013-02-24 19:43:00,
2013-02-24 13:48:00,63.9,30.2,29.75,SSE,151,14.0,22.0,28,0.00,,,0.00,meteohub,2013-02-24 19:48:00,
2013-02-24 13:53:00,63.5,28.9,29.75,South,183,8.0,22.0,27,0.00,,,0.00,meteohub,2013-02-24 19:53:00,
2013-02-24 13:58:00,63.1,29.5,29.75,SE,146,8.0,19.0,28,0.00,,,0.00,meteohub,2013-02-24 19:58:00,
2013-02-24 14:03:00,63.3,29.7,29.75,SE,133,15.0,19.0,28,0.00,,,0.00,meteohub,2013-02-24 20:03:00,
2013-02-24 14:09:00,63.5,29.8,29.75,SSE,160,13.0,19.0,28,0.00,,,0.00,meteohub,2013-02-24 20:09:00,
2013-02-24 14:14:00,63.7,29.1,29.72,South,175,11.0,18.0,27,0.00,,,0.00,meteohub,2013-02-24 20:14:00,
2013-02-24 14:19:00,63.5,28.9,29.72,SSE,167,6.0,18.0,27,0.00,,,0.00,meteohub,2013-02-24 20:19:00,
2013-02-24 14:24:00,63.9,29.3,29.72,ESE,113,10.0,18.0,27,0.00,,,0.00,meteohub,2013-02-24 20:24:00,
2013-02-24 14:29:00,63.9,29.3,29.72,SSE,153,15.0,20.0,27,0.00,,,0.00,meteohub,2013-02-24 20:29:00,
2013-02-24 14:34:00,64.0,29.3,29.72,SSE,166,8.0,17.0,27,0.00,,,0.00,meteohub,2013-02-24 20:34:00,
2013-02-24 14:39:00,64.8,30.0,29.72,SE,137,11.0,17.0,27,0.00,,,0.00,meteohub,2013-02-24 20:39:00,
2013-02-24 14:44:00,64.8,29.1,29.72,SE,144,7.0,15.0,26,0.00,,,0.00,meteohub,2013-02-24 20:44:00,
2013-02-24 14:49:00,64.9,30.2,29.72,SE,137,11.0,15.0,27,0.00,,,0.00,meteohub,2013-02-24 20:49:00,
2013-02-24 14:54:00,65.3,29.5,29.72,SE,132,13.0,19.0,26,0.00,,,0.00,meteohub,2013-02-24 20:54:00,
2013-02-24 14:59:00,65.1,30.4,29.72,SE,127,10.0,19.0,27,0.00,,,0.00,meteohub,2013-02-24 20:59:00,
2013-02-24 15:04:00,65.1,30.4,29.72,South,170,13.0,19.0,27,0.00,,,0.00,meteohub,2013-02-24 21:04:00,
2013-02-24 15:10:00,64.8,30.0,29.72,ESE,116,8.0,19.0,27,0.00,,,0.00,meteohub,2013-02-24 21:10:00,
2013-02-24 15:15:00,64.9,30.2,29.72,ESE,113,19.0,19.0,27,0.00,,,0.00,meteohub,2013-02-24 21:15:00,
2013-02-24 15:20:00,64.6,29.8,29.72,SE,128,11.0,19.0,27,0.00,,,0.00,meteohub,2013-02-24 21:20:00,
2013-02-24 15:25:00,64.8,30.0,29.69,ESE,116,11.0,20.0,27,0.00,,,0.00,meteohub,2013-02-24 21:25:00,
2013-02-24 15:30:00,64.0,30.2,29.69,SSE,151,13.0,20.0,28,0.00,,,0.00,meteohub,2013-02-24 21:30:00,
2013-02-24 15:35:00,63.7,30.0,29.69,SE,124,9.0,19.0,28,0.00,,,0.00,meteohub,2013-02-24 21:35:00,
2013-02-24 15:40:00,63.9,30.2,29.69,SSE,149,11.0,19.0,28,0.00,,,0.00,meteohub,2013-02-24 21:40:00,
2013-02-24 15:45:00,63.7,30.0,29.69,SE,136,8.0,19.0,28,0.00,,,0.00,meteohub,2013-02-24 21:45:00,
2013-02-24 15:50:00,64.0,31.1,29.69,SE,132,9.0,19.0,29,0.00,,,0.00,meteohub,2013-02-24 21:50:00,
2013-02-24 15:55:00,64.2,31.3,29.69,SSW,200,14.0,17.0,29,0.00,,,0.00,meteohub,2013-02-24 21:55:00,
2013-02-24 16:00:00,64.0,31.1,29.69,SSE,149,15.0,17.0,29,0.00,,,0.00,meteohub,2013-02-24 22:00:00,
2013-02-24 16:07:00,63.0,30.2,29.69,SE,136,7.0,17.0,29,0.00,,,0.00,meteohub,2013-02-24 22:07:00,
2013-02-24 16:12:00,62.2,31.3,29.69,ESE,108,8.0,17.0,31,0.00,,,0.00,meteohub,2013-02-24 22:12:00,
2013-02-24 16:17:00,62.2,31.3,29.69,ESE,122,10.0,17.0,31,0.00,,,0.00,meteohub,2013-02-24 22:17:00,
2013-02-24 16:22:00,62.2,31.3,29.69,SE,144,11.0,17.0,31,0.00,,,0.00,meteohub,2013-02-24 22:22:00,
2013-02-24 16:27:00,62.2,31.3,29.69,SSE,158,8.0,15.0,31,0.00,,,0.00,meteohub,2013-02-24 22:27:00,
2013-02-24 16:32:00,62.2,31.3,29.69,SSE,154,8.0,15.0,31,0.00,,,0.00,meteohub,2013-02-24 22:32:00,
2013-02-24 16:37:00,62.2,31.3,29.69,SE,137,10.0,15.0,31,0.00,,,0.00,meteohub,2013-02-24 22:37:00,
2013-02-24 16:42:00,62.2,32.0,29.69,SE,128,12.0,15.0,32,0.00,,,0.00,meteohub,2013-02-24 22:42:00,
2013-02-24 16:47:00,62.6,31.5,29.69,ESE,111,16.0,17.0,31,0.00,,,0.00,meteohub,2013-02-24 22:47:00,
2013-02-24 16:52:00,62.6,31.5,29.69,SE,125,15.0,17.0,31,0.00,,,0.00,meteohub,2013-02-24 22:52:00,
2013-02-24 16:57:00,62.4,32.2,29.69,SE,146,12.0,18.0,32,0.00,,,0.00,meteohub,2013-02-24 22:57:00,
2013-02-24 17:02:00,62.2,32.0,29.69,ESE,122,11.0,18.0,32,0.00,,,0.00,meteohub,2013-02-24 23:02:00,
2013-02-24 17:07:00,62.1,31.8,29.69,South,171,12.0,15.0,32,0.00,,,0.00,meteohub,2013-02-24 23:07:00,
2013-02-24 17:12:00,61.9,31.6,29.69,SE,129,14.0,15.0,32,0.00,,,0.00,meteohub,2013-02-24 23:12:00,
2013-02-24 17:17:00,61.7,32.4,29.69,SE,142,6.0,14.0,33,0.00,,,0.00,meteohub,2013-02-24 23:17:00,
2013-02-24 17:22:00,61.5,32.2,29.69,ESE,115,8.0,14.0,33,0.00,,,0.00,meteohub,2013-02-24 23:22:00,
2013-02-24 17:27:00,61.3,32.0,29.69,SSE,147,11.0,14.0,33,0.00,,,0.00,meteohub,2013-02-24 23:27:00,
2013-02-24 17:32:00,61.3,32.0,29.69,SE,144,10.0,14.0,33,0.00,,,0.00,meteohub,2013-02-24 23:32:00,
2013-02-24 17:37:00,61.0,31.6,29.69,SSE,162,8.0,15.0,33,0.00,,,0.00,meteohub,2013-02-24 23:37:00,
2013-02-24 17:42:00,61.0,31.6,29.69,South,181,6.0,15.0,33,0.00,,,0.00,meteohub,2013-02-24 23:42:00,
2013-02-24 17:47:00,60.8,32.2,29.69,SE,145,6.0,15.0,34,0.00,,,0.00,meteohub,2013-02-24 23:47:00,
2013-02-24 17:52:00,60.6,32.2,29.69,SE,127,8.0,15.0,34,0.00,,,0.00,meteohub,2013-02-24 23:52:00,
2013-02-24 17:57:00,60.4,32.0,29.72,SE,136,8.0,15.0,34,0.00,,,0.00,meteohub,2013-02-24 23:57:00,
2013-02-24 18:02:00,60.1,31.6,29.72,SE,129,9.0,15.0,34,0.00,,,0.00,meteohub,2013-02-25 00:02:00,
2013-02-24 18:07:00,59.9,31.5,29.72,ESE,113,9.0,13.0,34,0.00,,,0.00,meteohub,2013-02-25 00:07:00,
2013-02-24 18:12:00,59.5,31.1,29.72,South,182,8.0,13.0,34,0.00,,,0.00,meteohub,2013-02-25 00:12:00,
2013-02-24 18:17:00,59.4,31.6,29.72,SE,137,8.0,13.0,35,0.00,,,0.00,meteohub,2013-02-25 00:17:00,
2013-02-24 18:23:00,58.8,31.3,29.72,SE,132,5.0,13.0,35,0.00,,,0.00,meteohub,2013-02-25 00:23:00,
2013-02-24 18:28:00,58.3,31.5,29.72,SE,135,8.0,13.0,36,0.00,,,0.00,meteohub,2013-02-25 00:28:00,
2013-02-24 18:33:00,58.1,31.3,29.72,SE,141,7.0,13.0,36,0.00,,,0.00,meteohub,2013-02-25 00:33:00,
2013-02-24 18:38:00,57.9,31.1,29.72,SE,144,6.0,13.0,36,0.00,,,0.00,meteohub,2013-02-25 00:38:00,
2013-02-24 18:43:00,57.4,30.6,29.72,ESE,117,5.0,13.0,36,0.00,,,0.00,meteohub,2013-02-25 00:43:00,
2013-02-24 18:48:00,57.2,31.1,29.72,ESE,105,10.0,12.0,37,0.00,,,0.00,meteohub,2013-02-25 00:48:00,
2013-02-24 18:53:00,57.0,30.9,29.72,SE,135,10.0,12.0,37,0.00,,,0.00,meteohub,2013-02-25 00:53:00,
2013-02-24 18:58:00,57.0,30.9,29.72,ESE,114,8.0,11.0,37,0.00,,,0.00,meteohub,2013-02-25 00:58:00,
2013-02-24 19:03:00,56.8,30.9,29.72,ESE,105,5.0,11.0,37,0.00,,,0.00,meteohub,2013-02-25 01:03:00,
2013-02-24 19:08:00,56.5,30.6,29.72,ESE,116,3.0,11.0,37,0.00,,,0.00,meteohub,2013-02-25 01:08:00,
2013-02-24 19:14:00,56.1,30.2,29.72,ESE,113,5.0,11.0,37,0.00,,,0.00,meteohub,2013-02-25 01:14:00,
2013-02-24 19:19:00,55.8,29.8,29.72,ESE,115,5.0,10.0,37,0.00,,,0.00,meteohub,2013-02-25 01:19:00,
2013-02-24 19:24:00,55.2,30.0,29.72,SE,126,5.0,10.0,38,0.00,,,0.00,meteohub,2013-02-25 01:24:00,
2013-02-24 19:29:00,54.9,29.7,29.75,SE,128,3.0,8.0,38,0.00,,,0.00,meteohub,2013-02-25 01:29:00,
2013-02-24 19:34:00,54.5,29.5,29.75,ESE,120,3.0,8.0,38,0.00,,,0.00,meteohub,2013-02-25 01:34:00,
2013-02-24 19:39:00,54.1,29.7,29.75,ESE,116,4.0,6.0,39,0.00,,,0.00,meteohub,2013-02-25 01:39:00,
2013-02-24 19:44:00,53.8,29.5,29.75,ESE,111,4.0,6.0,39,0.00,,,0.00,meteohub,2013-02-25 01:44:00,
2013-02-24 19:49:00,53.4,29.7,29.75,ESE,106,4.0,6.0,40,0.00,,,0.00,meteohub,2013-02-25 01:49:00,
2013-02-24 19:54:00,53.1,30.6,29.75,ESE,113,4.0,6.0,42,0.00,,,0.00,meteohub,2013-02-25 01:54:00,
2013-02-24 19:59:00,53.1,30.6,29.75,ESE,120,3.0,6.0,42,0.00,,,0.00,meteohub,2013-02-25 01:59:00,
2013-02-24 20:04:00,53.1,31.1,29.75,ESE,106,4.0,6.0,43,0.00,,,0.00,meteohub,2013-02-25 02:04:00,
2013-02-24 20:09:00,53.1,31.1,29.75,ESE,102,6.0,8.0,43,0.00,,,0.00,meteohub,2013-02-25 02:09:00,
2013-02-24 20:14:00,52.7,30.7,29.75,ESE,104,6.0,8.0,43,0.00,,,0.00,meteohub,2013-02-25 02:14:00,
2013-02-24 20:20:00,52.5,30.7,29.75,ESE,106,5.0,8.0,43,0.00,,,0.00,meteohub,2013-02-25 02:20:00,
2013-02-24 20:25:00,52.3,31.1,29.75,East,99,6.0,9.0,44,0.00,,,0.00,meteohub,2013-02-25 02:25:00,
2013-02-24 20:30:00,52.2,30.9,29.75,ESE,105,5.0,9.0,44,0.00,,,0.00,meteohub,2013-02-25 02:30:00,
2013-02-24 20:35:00,52.0,30.7,29.75,East,101,6.0,9.0,44,0.00,,,0.00,meteohub,2013-02-25 02:35:00,
2013-02-24 20:40:00,51.6,30.9,29.72,ESE,111,5.0,9.0,45,0.00,,,0.00,meteohub,2013-02-25 02:40:00,
2013-02-24 20:45:00,51.6,31.5,29.72,East,97,11.0,11.0,46,0.00,,,0.00,meteohub,2013-02-25 02:45:00,
2013-02-24 20:50:00,51.6,31.5,29.72,East,98,4.0,11.0,46,0.00,,,0.00,meteohub,2013-02-25 02:50:00,
2013-02-24 20:55:00,51.6,31.5,29.72,East,92,7.0,11.0,46,0.00,,,0.00,meteohub,2013-02-25 02:55:00,
2013-02-24 21:00:00,51.4,31.3,29.72,East,99,8.0,11.0,46,0.00,,,0.00,meteohub,2013-02-25 03:00:00,
2013-02-24 21:05:00,51.4,31.3,29.72,East,95,9.0,11.0,46,0.00,,,0.00,meteohub,2013-02-25 03:05:00,
2013-02-24 21:10:00,51.3,31.1,29.72,East,84,8.0,11.0,46,0.00,,,0.00,meteohub,2013-02-25 03:10:00,
2013-02-24 21:15:00,51.3,31.1,29.72,East,99,8.0,11.0,46,0.00,,,0.00,meteohub,2013-02-25 03:15:00,
2013-02-24 21:20:00,51.3,31.1,29.72,East,97,9.0,11.0,46,0.00,,,0.00,meteohub,2013-02-25 03:20:00,
2013-02-24 21:26:00,51.3,31.1,29.72,ESE,105,8.0,15.0,46,0.00,,,0.00,meteohub,2013-02-25 03:26:00,
2013-02-24 21:31:00,51.1,31.1,29.72,ESE,104,10.0,15.0,46,0.00,,,0.00,meteohub,2013-02-25 03:31:00,
2013-02-24 21:36:00,51.1,31.1,29.72,East,99,6.0,15.0,46,0.00,,,0.00,meteohub,2013-02-25 03:36:00,
2013-02-24 21:41:00,51.1,31.1,29.72,East,96,5.0,15.0,46,0.00,,,0.00,meteohub,2013-02-25 03:41:00,
2013-02-24 21:46:00,50.9,30.9,29.72,ESE,114,5.0,11.0,46,0.00,,,0.00,meteohub,2013-02-25 03:46:00,
2013-02-24 21:51:00,50.7,30.7,29.72,East,88,3.0,11.0,46,0.00,,,0.00,meteohub,2013-02-25 03:51:00,
2013-02-24 21:56:00,50.5,30.6,29.75,East,93,3.0,10.0,46,0.00,,,0.00,meteohub,2013-02-25 03:56:00,
2013-02-24 22:02:00,50.5,30.6,29.75,East,89,5.0,10.0,46,0.00,,,0.00,meteohub,2013-02-25 04:02:00,
2013-02-24 22:07:00,50.7,30.7,29.75,ENE,69,4.0,7.0,46,0.00,,,0.00,meteohub,2013-02-25 04:07:00,
2013-02-24 22:12:00,50.5,30.0,29.75,East,83,4.0,7.0,45,0.00,,,0.00,meteohub,2013-02-25 04:12:00,
2013-02-24 22:17:00,50.4,29.8,29.75,East,89,3.0,7.0,45,0.00,,,0.00,meteohub,2013-02-25 04:17:00,
2013-02-24 22:22:00,50.4,29.8,29.75,ENE,72,4.0,7.0,45,0.00,,,0.00,meteohub,2013-02-25 04:22:00,
2013-02-24 22:27:00,50.2,29.7,29.75,ENE,70,4.0,8.0,45,0.00,,,0.00,meteohub,2013-02-25 04:27:00,
2013-02-24 22:32:00,50.2,29.7,29.75,ENE,74,5.0,8.0,45,0.00,,,0.00,meteohub,2013-02-25 04:32:00,
2013-02-24 22:37:00,50.0,29.5,29.75,ENE,77,6.0,8.0,45,0.00,,,0.00,meteohub,2013-02-25 04:37:00,
2013-02-24 22:42:00,50.0,28.9,29.75,ENE,70,3.0,8.0,44,0.00,,,0.00,meteohub,2013-02-25 04:42:00,
2013-02-24 22:47:00,49.8,28.8,29.75,ENE,78,0.0,8.0,44,0.00,,,0.00,meteohub,2013-02-25 04:47:00,
2013-02-24 22:52:00,49.8,28.8,29.75,ENE,64,6.0,8.0,44,0.00,,,0.00,meteohub,2013-02-25 04:52:00,
2013-02-24 22:57:00,50.0,28.9,29.75,East,81,5.0,8.0,44,0.00,,,0.00,meteohub,2013-02-25 04:57:00,
2013-02-24 23:00:00,49.8,28.8,29.75,East,79,6.0,8.0,44,0.00,,,0.00,meteohub,2013-02-25 05:00:00,
2013-02-24 23:01:00,49.8,28.8,29.75,ENE,77,5.0,8.0,44,0.00,,,0.00,meteohub,2013-02-25 05:01:00,
2013-02-24 23:06:00,49.8,29.3,29.75,East,83,5.0,8.0,45,0.00,,,0.00,meteohub,2013-02-25 05:06:00,
2013-02-24 23:11:00,49.8,29.3,29.75,ENE,74,6.0,8.0,45,0.00,,,0.00,meteohub,2013-02-25 05:11:00,
2013-02-24 23:16:00,50.0,29.5,29.75,ENE,72,4.0,10.0,45,0.00,,,0.00,meteohub,2013-02-25 05:16:00,
2013-02-24 23:21:00,50.0,29.5,29.75,ENE,74,8.0,10.0,45,0.00,,,0.00,meteohub,2013-02-25 05:21:00,
2013-02-24 23:27:00,50.0,29.5,29.75,ENE,71,5.0,9.0,45,0.00,,,0.00,meteohub,2013-02-25 05:27:00,
2013-02-24 23:32:00,50.0,29.5,29.75,East,90,6.0,9.0,45,0.00,,,0.00,meteohub,2013-02-25 05:32:00,
2013-02-24 23:37:00,50.0,28.9,29.75,East,84,4.0,11.0,44,0.00,,,0.00,meteohub,2013-02-25 05:37:00,
2013-02-24 23:42:00,50.0,28.9,29.75,East,83,8.0,11.0,44,0.00,,,0.00,meteohub,2013-02-25 05:42:00,
2013-02-24 23:47:00,49.8,29.3,29.75,ENE,67,9.0,11.0,45,0.00,,,0.00,meteohub,2013-02-25 05:47:00,
2013-02-24 23:52:00,49.8,29.3,29.75,East,96,9.0,11.0,45,0.00,,,0.00,meteohub,2013-02-25 05:52:00,
2013-02-24 23:57:00,49.8,28.8,29.72,East,92,8.0,12.0,44,0.00,,,0.00,meteohub,2013-02-25 05:57:00,